Middlebury State AP, Middlebu, VT

3:27 AM EST on December 15, 2019 (GMT -0500)
Middlebury State AP, Middlebu

Weather History for K6B0 - July, 2019

Change the Weather History Date:

Monday, July 22, 2019

  Actual Average (KRUT) Record (KRUT)
Temperature  
Mean Temperature 64 °F -  
Max Temperature 65 °F 82 °F 93 °F (2011)
Min Temperature 62 °F 57 °F 45 °F (1950)
Degree Days  
Heating Degree Days 2    
Growing Degree Days 14 (Base 50)    
Moisture  
Dew Point 62 °F    
Average Humidity 95    
Maximum Humidity 98    
Minimum Humidity 93    
Precipitation  
Precipitation 0.21 in - - ()
Sea Level Pressure  
Sea Level Pressure 29.89 in    
Wind  
Wind Speed 1 mph (NNW)    
Max Wind Speed 5 mph    
Max Gust Speed -    
Visibility 8 miles    
Events Rain    
Averages and records for this station are not official NWS values.
T = Trace of Precipitation, MM = Missing Value Source: NWS Daily Summary

Daily Weather History Graph

Daily Weather History Graph

Search for Another Location

Airport or City:

Astronomy

Jul. 22, 2019 Rise Set
Actual Time 5:29 AM EDT 8:27 PM EDT
Civil Twilight 4:55 AM EDT 9:01 PM EDT
Nautical Twilight 4:12 AM EDT 9:44 PM EDT
Astronomical Twilight 3:20 AM EDT 10:35 PM EDT
Moon 11:35 PM EDT (7/22) 10:53 AM EDT (7/22)
Length of Visible Light 16h 05m
Length of Day
14h 57m
Waning Gibbous, 72% of the Moon is Illuminated
Jul 22
Waning Gibbous
Jul 24
Last Quarter
Jul 31
New
Aug 7
First Quarter
Aug 15
Full

Hourly Weather History & Observations

Time (EDT) Temp. Dew Point Humidity Pressure Visibility Wind Dir Wind Speed Gust Speed Precip Events Conditions
11:46 AM 64.6 °F 62.4 °F 93% 29.96 in 10.0 mi Calm Calm - 0.02 in Rain Light Rain
11:55 AM 64.4 °F 62.4 °F 93% 29.96 in 10.0 mi Calm Calm - 0.03 in Rain Light Rain
11:56 AM 64.4 °F 62.4 °F 93% 29.96 in 10.0 mi Calm Calm - 0.03 in Rain Light Rain
12:15 PM 64.4 °F 62.2 °F 93% 29.95 in 10.0 mi Calm Calm - N/A Rain Light Rain
12:16 PM 64.4 °F 62.4 °F 93% 29.94 in 10.0 mi Calm Calm - N/A Rain Light Rain
12:38 PM 64.8 °F 63.0 °F 94% 29.93 in 10.0 mi South 4.6 mph - 0.01 in Rain Light Rain
12:56 PM 65.5 °F 63.5 °F 93% 29.93 in 10.0 mi SW 3.5 mph - 0.01 in Rain Light Rain
1:15 PM 65.3 °F 63.7 °F 94% 29.94 in 7.0 mi West 4.6 mph - 0.01 in Rain Light Rain
1:16 PM 65.3 °F 63.7 °F 94% 29.94 in 7.0 mi WSW 4.6 mph - 0.01 in Rain Light Rain
1:35 PM 64.0 °F 62.6 °F 95% 29.94 in 7.0 mi WNW 4.6 mph - 0.02 in Rain Light Rain
1:36 PM 63.9 °F 62.6 °F 96% 29.94 in 7.0 mi WNW 4.6 mph - 0.02 in Rain Light Rain
1:59 PM 63.9 °F 62.6 °F 96% 29.94 in 7.0 mi Calm Calm - 0.04 in Rain Light Rain
2:16 PM 63.5 °F 61.9 °F 94% 29.93 in 7.0 mi North 3.5 mph - 0.02 in Rain Light Rain
2:35 PM 63.1 °F 61.7 °F 95% 29.92 in 7.0 mi NNE 3.5 mph - 0.03 in Rain Light Rain
2:36 PM 63.1 °F 61.7 °F 95% 29.91 in 7.0 mi NNE 3.5 mph - 0.03 in Rain Light Rain
2:55 PM 63.5 °F 61.9 °F 94% 29.90 in 7.0 mi Calm Calm - 0.04 in Rain Rain
2:56 PM 63.5 °F 62.1 °F 95% 29.90 in 7.0 mi Calm Calm - 0.04 in Rain Rain
3:17 PM 63.5 °F 62.1 °F 95% 29.89 in 10.0 mi North 3.5 mph - 0.01 in Rain Rain
3:35 PM 63.5 °F 62.1 °F 95% 29.89 in 7.0 mi NW 4.6 mph - 0.02 in Rain Light Rain
3:55 PM 63.5 °F 62.1 °F 95% 29.90 in 7.0 mi NNW 4.6 mph - 0.03 in Rain Rain
3:56 PM 63.5 °F 62.1 °F 95% 29.90 in 7.0 mi NNW 4.6 mph - 0.03 in Rain Rain
4:15 PM 63.1 °F 61.9 °F 96% 29.90 in 5.0 mi North 3.5 mph - 0.02 in Rain Rain
4:16 PM 63.1 °F 62.1 °F 96% 29.90 in 5.0 mi North 3.5 mph - 0.02 in Rain Rain
4:38 PM 63.1 °F 61.7 °F 95% 29.89 in 10.0 mi Calm Calm - 0.03 in Rain Light Rain
4:55 PM 63.5 °F 61.5 °F 93% 29.88 in 10.0 mi NW 3.5 mph - 0.04 in Rain Light Rain
5:15 PM 63.1 °F 61.7 °F 95% 29.88 in 10.0 mi North 4.6 mph - 0.01 in Rain Light Rain
5:35 PM 63.1 °F 61.3 °F 94% 29.87 in 10.0 mi North 3.5 mph - 0.01 in   Light Drizzle
5:36 PM 63.1 °F 61.2 °F 93% 29.87 in 10.0 mi Calm Calm - 0.01 in   Light Drizzle
5:58 PM 63.5 °F 61.7 °F 94% 29.87 in 10.0 mi NNW 3.5 mph - 0.01 in   Light Drizzle
6:16 PM 63.5 °F 61.5 °F 93% 29.86 in 10.0 mi Calm Calm - N/A   Light Drizzle
6:35 PM 63.5 °F 61.7 °F 94% 29.87 in 10.0 mi Calm Calm - N/A   Light Drizzle
6:36 PM 63.5 °F 61.7 °F 94% 29.87 in 10.0 mi Calm Calm - N/A   Light Drizzle
6:55 PM 63.5 °F 61.9 °F 94% 29.86 in 10.0 mi Calm Calm - N/A   Mostly Cloudy
6:56 PM 63.5 °F 61.9 °F 94% 29.86 in 10.0 mi Calm Calm - N/A   Mostly Cloudy
7:18 PM 63.5 °F 62.1 °F 95% 29.86 in 10.0 mi Calm Calm - N/A Rain Rain
7:36 PM 63.3 °F 62.1 °F 96% 29.85 in 7.0 mi Calm Calm - 0.01 in Rain Light Rain
7:56 PM 63.0 °F 61.9 °F 96% 29.84 in 10.0 mi Calm Calm - 0.01 in Rain Rain
8:15 PM 62.6 °F 61.2 °F 95% 29.86 in 10.0 mi Calm Calm - N/A Rain Rain
8:16 PM 62.6 °F 61.2 °F 95% 29.86 in 10.0 mi Calm Calm - N/A Rain Rain
8:38 PM 63.0 °F 61.9 °F 96% 29.87 in 10.0 mi Calm Calm - N/A   Light Drizzle
8:56 PM 62.8 °F 61.9 °F 97% 29.86 in 7.0 mi Calm Calm - N/A   Overcast
9:16 PM 62.8 °F 61.9 °F 97% 29.87 in 7.0 mi Calm Calm - N/A   Overcast
9:35 PM 63.0 °F 62.2 °F 97% 29.87 in 7.0 mi Calm Calm - N/A   Overcast
9:36 PM 63.0 °F 62.2 °F 97% 29.87 in 7.0 mi Calm Calm - N/A   Overcast
9:59 PM 63.1 °F 62.6 °F 98% 29.88 in 7.0 mi Calm Calm - N/A   Overcast
10:16 PM 63.1 °F 62.6 °F 98% 29.88 in 7.0 mi Calm Calm - N/A   Overcast
10:36 PM 63.1 °F 62.2 °F 97% 29.87 in 10.0 mi Calm Calm - N/A Rain Light Rain
10:55 PM 63.0 °F 62.1 °F 97% 29.87 in 7.0 mi Calm Calm - N/A   Overcast
10:56 PM 63.0 °F 62.1 °F 97% 29.87 in 7.0 mi Calm Calm - N/A   Overcast
11:20 PM 63.0 °F 62.4 °F 98% 29.87 in 7.0 mi Calm Calm - N/A   Overcast
11:38 PM 62.6 °F 61.9 °F 97% 29.86 in 10.0 mi Calm Calm - N/A   Overcast
11:55 PM 62.2 °F 61.7 °F 98% 29.86 in 10.0 mi Calm Calm - N/A   Overcast